contact:dominique.lefevre@mio.osupytheas.fr, maurice.libes@osupytheas.fr, didier.mallarino@osupytheas.fr
Project:EMSO http://www.emso-fr.org/EMSO-France
Depth: 2436.0 m
Title:EMSO Ligure Ouest : Data MII capteur CSTAR
DateTime,Latitude,Longitude,Instrument_Serial,Reference_Counts,Signal_Counts,Corrected_Signal_raw_counts,Calculated_Beam_c_inverse_meters,Internal_thermistor_counts
DateTime,Latitude,Longitude,Instrument_Serial,Reference_Counts,Signal_Counts,Corrected_Signal_raw_counts,Calculated_Beam_c_inverse_meters,Internal_thermistor_counts
2023-01-04T00:01:27,42.805,6.029,CST-1368DR,4446,4942,11817,01.115,551
2023-01-04T00:04:29,42.805,6.029,CST-1368DR,4446,4942,11818,01.115,551
2023-01-04T00:07:30,42.805,6.029,CST-1368DR,4446,4940,11812,01.117,551
2023-01-04T00:10:32,42.805,6.029,CST-1368DR,4446,4942,11818,01.115,551
2023-01-04T00:13:33,42.805,6.029,CST-1368DR,4446,4941,11815,01.116,551
2023-01-04T00:16:35,42.805,6.029,CST-1368DR,4446,4941,11814,01.116,551
2023-01-04T00:19:36,42.805,6.029,CST-1368DR,4446,4940,11812,01.117,551
2023-01-04T00:22:38,42.805,6.029,CST-1368DR,4445,4940,11814,01.116,551
2023-01-04T00:25:40,42.805,6.029,CST-1368DR,4445,4939,11814,01.116,551
2023-01-04T00:28:41,42.805,6.029,CST-1368DR,4445,4940,11815,01.116,551
2023-01-04T00:31:43,42.805,6.029,CST-1368DR,4445,4939,11814,01.116,551
2023-01-04T00:34:44,42.805,6.029,CST-1368DR,4445,4939,11813,01.116,551
2023-01-04T00:37:46,42.805,6.029,CST-1368DR,4445,4939,11814,01.116,551
2023-01-04T00:40:48,42.805,6.029,CST-1368DR,4445,4938,11810,01.117,551
2023-01-04T00:43:49,42.805,6.029,CST-1368DR,4445,4939,11813,01.116,551
2023-01-04T00:46:51,42.805,6.029,CST-1368DR,4445,4938,11811,01.117,551
2023-01-04T00:49:52,42.805,6.029,CST-1368DR,4445,4938,11811,01.117,551
2023-01-04T00:52:54,42.805,6.029,CST-1368DR,4445,4939,11813,01.116,551
2023-01-04T00:55:55,42.805,6.029,CST-1368DR,4445,4938,11811,01.117,551
2023-01-04T00:58:57,42.805,6.029,CST-1368DR,4445,4939,11812,01.117,551
2023-01-04T01:01:59,42.805,6.029,CST-1368DR,4445,4939,11814,01.116,551
2023-01-04T01:05:00,42.805,6.029,CST-1368DR,4445,4941,11817,01.115,551
2023-01-04T01:08:02,42.805,6.029,CST-1368DR,4445,4941,11817,01.115,551
2023-01-04T01:11:03,42.805,6.029,CST-1368DR,4445,4939,11812,01.117,551
2023-01-04T01:14:05,42.805,6.029,CST-1368DR,4445,4940,11814,01.116,551
2023-01-04T01:17:07,42.805,6.029,CST-1368DR,4445,4938,11810,01.117,551
2023-01-04T01:20:08,42.805,6.029,CST-1368DR,4445,4938,11811,01.117,551
2023-01-04T01:23:10,42.805,6.029,CST-1368DR,4445,4940,11814,01.116,551
2023-01-04T01:26:11,42.805,6.029,CST-1368DR,4445,4940,11815,01.116,551
2023-01-04T01:29:13,42.805,6.029,CST-1368DR,4445,4940,11814,01.116,551
2023-01-04T01:32:15,42.805,6.029,CST-1368DR,4445,4939,11814,01.116,551
2023-01-04T01:35:16,42.805,6.029,CST-1368DR,4445,4939,11812,01.117,551
2023-01-04T01:38:18,42.805,6.029,CST-1368DR,4444,4942,11822,01.113,551
2023-01-04T01:41:19,42.805,6.029,CST-1368DR,4444,4938,11812,01.117,551
2023-01-04T01:44:21,42.805,6.029,CST-1368DR,4444,4940,11817,01.115,551
2023-01-04T01:47:22,42.805,6.029,CST-1368DR,4444,4941,11820,01.114,551
2023-01-04T01:50:24,42.805,6.029,CST-1368DR,4444,4938,11813,01.116,551
2023-01-04T01:53:26,42.805,6.029,CST-1368DR,4444,4941,11820,01.114,551
2023-01-04T01:56:27,42.805,6.029,CST-1368DR,4444,4943,11825,01.112,551
2023-01-04T01:59:29,42.805,6.029,CST-1368DR,4444,4942,11823,01.113,551
2023-01-04T02:02:30,42.805,6.029,CST-1368DR,4444,4941,11820,01.114,551
2023-01-04T02:05:32,42.805,6.029,CST-1368DR,4444,4942,11823,01.113,551
2023-01-04T02:08:34,42.805,6.029,CST-1368DR,4444,4942,11823,01.113,551
2023-01-04T02:11:35,42.805,6.029,CST-1368DR,4444,4943,11825,01.112,551
2023-01-04T02:14:37,42.805,6.029,CST-1368DR,4444,4944,11828,01.111,551
2023-01-04T02:17:38,42.805,6.029,CST-1368DR,4444,4942,11822,01.113,551
2023-01-04T02:20:40,42.805,6.029,CST-1368DR,4444,4943,11824,01.113,551
2023-01-04T02:23:41,42.805,6.029,CST-1368DR,4444,4942,11823,01.113,551
2023-01-04T02:26:43,42.805,6.029,CST-1368DR,4444,4943,11824,01.113,551
2023-01-04T02:29:45,42.805,6.029,CST-1368DR,4444,4944,11828,01.111,551
2023-01-04T02:32:46,42.805,6.029,CST-1368DR,4444,4943,11825,01.112,551
2023-01-04T02:35:48,42.805,6.029,CST-1368DR,4444,4943,11825,01.112,551
2023-01-04T02:38:49,42.805,6.029,CST-1368DR,4444,4943,11825,01.112,551
2023-01-04T02:41:51,42.805,6.029,CST-1368DR,4444,4941,11820,01.114,551
2023-01-04T02:44:53,42.805,6.029,CST-1368DR,4444,4941,11819,01.114,551
2023-01-04T02:47:54,42.805,6.029,CST-1368DR,4444,4941,11820,01.114,551
2023-01-04T02:50:56,42.805,6.029,CST-1368DR,4444,4941,11820,01.114,551
2023-01-04T02:53:57,42.805,6.029,CST-1368DR,4444,4942,11823,01.113,551
2023-01-04T02:56:59,42.805,6.029,CST-1368DR,4443,4941,11822,01.113,551
2023-01-04T03:00:00,42.805,6.029,CST-1368DR,4443,4941,11822,01.113,551
2023-01-04T03:03:02,42.805,6.029,CST-1368DR,4443,4936,11810,01.117,551
2023-01-04T03:06:04,42.805,6.029,CST-1368DR,4443,4937,11813,01.116,551
2023-01-04T03:09:05,42.805,6.029,CST-1368DR,4443,4936,11810,01.117,551
2023-01-04T03:12:07,42.805,6.029,CST-1368DR,4443,4939,11818,01.115,551
2023-01-04T03:15:08,42.805,6.029,CST-1368DR,4443,4939,11817,01.115,551
2023-01-04T03:18:10,42.805,6.029,CST-1368DR,4443,4938,11816,01.115,551
2023-01-04T03:21:12,42.805,6.029,CST-1368DR,4443,4939,11817,01.115,551
2023-01-04T03:24:13,42.805,6.029,CST-1368DR,4443,4939,11817,01.115,551
2023-01-04T03:27:15,42.805,6.029,CST-1368DR,4443,4939,11818,01.115,551
2023-01-04T03:30:16,42.805,6.029,CST-1368DR,4443,4939,11818,01.115,551
2023-01-04T03:33:18,42.805,6.029,CST-1368DR,4443,4938,11816,01.115,551
2023-01-04T03:36:20,42.805,6.029,CST-1368DR,4443,4939,11818,01.115,551
2023-01-04T03:39:21,42.805,6.029,CST-1368DR,4443,4939,11819,01.114,551
2023-01-04T03:42:23,42.805,6.029,CST-1368DR,4443,4938,11816,01.115,551
2023-01-04T03:45:24,42.805,6.029,CST-1368DR,4443,4939,11818,01.115,551
2023-01-04T03:48:26,42.805,6.029,CST-1368DR,4443,4938,11816,01.115,551
2023-01-04T03:51:27,42.805,6.029,CST-1368DR,4443,4939,11817,01.115,551
2023-01-04T03:54:29,42.805,6.029,CST-1368DR,4443,4940,11819,01.114,551
2023-01-04T03:57:31,42.805,6.029,CST-1368DR,4443,4938,11815,01.116,551
2023-01-04T04:00:32,42.805,6.029,CST-1368DR,4443,4939,11818,01.115,551
2023-01-04T04:03:34,42.805,6.029,CST-1368DR,4443,4939,11818,01.115,551
2023-01-04T04:06:35,42.805,6.029,CST-1368DR,4443,4940,11820,01.114,551
2023-01-04T04:09:37,42.805,6.029,CST-1368DR,4443,4939,11819,01.114,551
2023-01-04T04:12:39,42.805,6.029,CST-1368DR,4443,4939,11817,01.115,551
2023-01-04T04:15:40,42.805,6.029,CST-1368DR,4443,4939,11817,01.115,551
2023-01-04T04:18:42,42.805,6.029,CST-1368DR,4443,4939,11818,01.115,551
2023-01-04T04:21:43,42.805,6.029,CST-1368DR,4443,4940,11819,01.114,551
2023-01-04T04:24:45,42.805,6.029,CST-1368DR,4443,4940,11820,01.114,551
2023-01-04T04:27:47,42.805,6.029,CST-1368DR,4443,4941,11823,01.113,551
2023-01-04T04:30:48,42.805,6.029,CST-1368DR,4443,4939,11819,01.114,551
2023-01-04T04:33:50,42.805,6.029,CST-1368DR,4442,4941,11824,01.113,551
2023-01-04T04:36:51,42.805,6.029,CST-1368DR,4442,4940,11822,01.113,551
2023-01-04T04:39:53,42.805,6.029,CST-1368DR,4442,4938,11817,01.115,551
2023-01-04T04:42:54,42.805,6.029,CST-1368DR,4442,4941,11824,01.113,551
2023-01-04T04:45:56,42.805,6.029,CST-1368DR,4442,4941,11824,01.113,551
2023-01-04T04:48:58,42.805,6.029,CST-1368DR,4442,4940,11822,01.113,551
2023-01-04T04:51:59,42.805,6.029,CST-1368DR,4442,4939,11821,01.114,551
2023-01-04T04:55:01,42.805,6.029,CST-1368DR,4442,4939,11819,01.114,551
2023-01-04T04:58:02,42.805,6.029,CST-1368DR,4442,4937,11815,01.116,551
2023-01-04T05:01:04,42.805,6.029,CST-1368DR,4442,4936,11814,01.116,551
2023-01-04T05:04:06,42.805,6.029,CST-1368DR,4442,4939,11820,01.114,551
2023-01-04T05:07:07,42.805,6.029,CST-1368DR,4442,4937,11816,01.115,551
2023-01-04T05:10:09,42.805,6.029,CST-1368DR,4442,4935,11810,01.117,551
2023-01-04T05:13:10,42.805,6.029,CST-1368DR,4442,4938,11818,01.115,551
2023-01-04T05:16:12,42.805,6.029,CST-1368DR,4442,4938,11818,01.115,551
2023-01-04T05:19:13,42.805,6.029,CST-1368DR,4442,4938,11818,01.115,551
2023-01-04T05:22:15,42.805,6.029,CST-1368DR,4442,4937,11815,01.116,551
2023-01-04T05:25:17,42.805,6.029,CST-1368DR,4442,4938,11817,01.115,551
2023-01-04T05:28:18,42.805,6.029,CST-1368DR,4442,4937,11815,01.116,551
2023-01-04T05:31:20,42.805,6.029,CST-1368DR,4442,4937,11816,01.115,551
2023-01-04T05:34:21,42.805,6.029,CST-1368DR,4442,4936,11814,01.116,551
2023-01-04T05:37:23,42.805,6.029,CST-1368DR,4442,4936,11813,01.116,551
2023-01-04T05:40:25,42.805,6.029,CST-1368DR,4442,4935,11810,01.117,551
2023-01-04T05:43:26,42.805,6.029,CST-1368DR,4442,4936,11814,01.116,551
2023-01-04T05:46:28,42.805,6.029,CST-1368DR,4442,4934,11809,01.118,551
2023-01-04T05:49:29,42.805,6.029,CST-1368DR,4442,4937,11816,01.115,551
2023-01-04T05:52:31,42.805,6.029,CST-1368DR,4442,4937,11815,01.116,551
2023-01-04T05:55:32,42.805,6.029,CST-1368DR,4442,4935,11810,01.117,551
2023-01-04T05:58:34,42.805,6.029,CST-1368DR,4442,4935,11812,01.117,551
2023-01-04T06:01:36,42.805,6.029,CST-1368DR,4442,4934,11809,01.118,551
2023-01-04T06:04:37,42.805,6.029,CST-1368DR,4442,4936,11813,01.116,551
2023-01-04T06:07:39,42.805,6.029,CST-1368DR,4442,4933,11806,01.119,551
2023-01-04T06:10:40,42.805,6.029,CST-1368DR,4442,4936,11813,01.116,551
2023-01-04T06:13:42,42.805,6.029,CST-1368DR,4442,4938,11819,01.114,551
2023-01-04T06:16:44,42.805,6.029,CST-1368DR,4442,4936,11813,01.116,551
2023-01-04T06:19:45,42.805,6.029,CST-1368DR,4441,4936,11816,01.115,551
2023-01-04T06:22:47,42.805,6.029,CST-1368DR,4441,4935,11814,01.116,551
2023-01-04T06:25:48,42.805,6.029,CST-1368DR,4441,4938,11821,01.114,551
2023-01-04T06:28:50,42.805,6.029,CST-1368DR,4441,4935,11812,01.117,551
2023-01-04T06:31:51,42.805,6.029,CST-1368DR,4441,4935,11812,01.117,551
2023-01-04T06:34:53,42.805,6.029,CST-1368DR,4441,4934,11812,01.117,551
2023-01-04T06:37:55,42.805,6.029,CST-1368DR,4441,4936,11815,01.116,551
2023-01-04T06:40:56,42.805,6.029,CST-1368DR,4441,4937,11817,01.115,551
2023-01-04T06:43:58,42.805,6.029,CST-1368DR,4441,4936,11815,01.116,551
2023-01-04T06:46:59,42.805,6.029,CST-1368DR,4441,4935,11814,01.116,551
2023-01-04T06:50:01,42.805,6.029,CST-1368DR,4441,4938,11821,01.114,551
2023-01-04T06:53:03,42.805,6.029,CST-1368DR,4441,4935,11812,01.117,551
2023-01-04T06:56:04,42.805,6.029,CST-1368DR,4441,4934,11811,01.117,551
2023-01-04T06:59:06,42.805,6.029,CST-1368DR,4441,4936,11815,01.116,551
2023-01-04T07:02:07,42.805,6.029,CST-1368DR,4441,4935,11812,01.117,551
2023-01-04T07:05:09,42.805,6.029,CST-1368DR,4441,4936,11816,01.115,551
2023-01-04T07:08:10,42.805,6.029,CST-1368DR,4441,4935,11813,01.116,551
2023-01-04T07:11:12,42.805,6.029,CST-1368DR,4441,4934,11811,01.117,551
2023-01-04T07:14:14,42.805,6.029,CST-1368DR,4441,4935,11813,01.116,551
2023-01-04T07:17:15,42.805,6.029,CST-1368DR,4441,4933,11809,01.118,551
2023-01-04T07:20:17,42.805,6.029,CST-1368DR,4441,4935,11814,01.116,551
2023-01-04T07:23:18,42.805,6.029,CST-1368DR,4441,4935,11813,01.116,551
2023-01-04T07:26:20,42.805,6.029,CST-1368DR,4441,4935,11814,01.116,551
2023-01-04T07:29:22,42.805,6.029,CST-1368DR,4441,4936,11816,01.115,551
2023-01-04T07:32:23,42.805,6.029,CST-1368DR,4441,4933,11809,01.118,551
2023-01-04T07:35:25,42.805,6.029,CST-1368DR,4441,4936,11816,01.115,551
2023-01-04T07:38:26,42.805,6.029,CST-1368DR,4441,4935,11813,01.116,551
2023-01-04T07:41:28,42.805,6.029,CST-1368DR,4441,4935,11813,01.116,551
2023-01-04T07:44:30,42.805,6.029,CST-1368DR,4441,4932,11806,01.119,551
2023-01-04T07:47:31,42.805,6.029,CST-1368DR,4441,4933,11808,01.118,551
2023-01-04T07:50:33,42.805,6.029,CST-1368DR,4441,4932,11805,01.119,551
2023-01-04T07:53:34,42.805,6.029,CST-1368DR,4441,4929,11799,01.121,551
2023-01-04T07:56:36,42.805,6.029,CST-1368DR,4441,4933,11809,01.118,551
2023-01-04T07:59:37,42.805,6.029,CST-1368DR,4441,4935,11814,01.116,551
2023-01-04T08:02:39,42.805,6.029,CST-1368DR,4441,4936,11816,01.115,551
2023-01-04T08:05:41,42.805,6.029,CST-1368DR,4441,4936,11815,01.116,551
2023-01-04T08:08:42,42.805,6.029,CST-1368DR,4441,4935,11813,01.116,551
2023-01-04T08:11:44,42.805,6.029,CST-1368DR,4441,4935,11814,01.116,551
2023-01-04T08:14:45,42.805,6.029,CST-1368DR,4441,4935,11814,01.116,551
2023-01-04T08:17:47,42.805,6.029,CST-1368DR,4440,4934,11814,01.116,551
2023-01-04T08:20:49,42.805,6.029,CST-1368DR,4440,4934,11814,01.116,551
2023-01-04T08:23:50,42.805,6.029,CST-1368DR,4440,4936,11819,01.114,551
2023-01-04T08:26:52,42.805,6.029,CST-1368DR,4440,4935,11815,01.116,551
2023-01-04T08:29:53,42.805,6.029,CST-1368DR,4440,4936,11817,01.115,551
2023-01-04T08:32:55,42.805,6.029,CST-1368DR,4440,4933,11812,01.117,551
2023-01-04T08:35:56,42.805,6.029,CST-1368DR,4440,4935,11816,01.115,551
2023-01-04T08:38:58,42.805,6.029,CST-1368DR,4440,4934,11813,01.116,551
2023-01-04T08:42:00,42.805,6.029,CST-1368DR,4440,4932,11809,01.118,551
2023-01-04T08:45:01,42.805,6.029,CST-1368DR,4440,4936,11817,01.115,551
2023-01-04T08:48:03,42.805,6.029,CST-1368DR,4440,4933,11811,01.117,551
2023-01-04T08:51:04,42.805,6.029,CST-1368DR,4440,4933,11810,01.117,551
2023-01-04T08:54:06,42.805,6.029,CST-1368DR,4440,4933,11811,01.117,551
2023-01-04T08:57:08,42.805,6.029,CST-1368DR,4440,4935,11816,01.115,551
2023-01-04T09:00:09,42.805,6.029,CST-1368DR,4440,4933,11811,01.117,551
2023-01-04T09:03:11,42.805,6.029,CST-1368DR,4440,4932,11809,01.118,551
2023-01-04T09:06:12,42.805,6.029,CST-1368DR,4440,4934,11814,01.116,551
2023-01-04T09:09:14,42.805,6.029,CST-1368DR,4440,4935,11815,01.116,551
2023-01-04T09:12:16,42.805,6.029,CST-1368DR,4440,4934,11814,01.116,551
2023-01-04T09:15:17,42.805,6.029,CST-1368DR,4440,4932,11809,01.118,551
2023-01-04T09:18:19,42.805,6.029,CST-1368DR,4440,4937,11822,01.113,551
2023-01-04T09:21:20,42.805,6.029,CST-1368DR,4440,4934,11813,01.116,551
2023-01-04T09:24:22,42.805,6.029,CST-1368DR,4440,4933,11811,01.117,551
2023-01-04T09:27:23,42.805,6.029,CST-1368DR,4440,4934,11814,01.116,551
2023-01-04T09:30:25,42.805,6.029,CST-1368DR,4440,4923,11787,01.125,551
2023-01-04T09:33:27,42.805,6.029,CST-1368DR,4440,4934,11814,01.116,551
2023-01-04T09:36:28,42.805,6.029,CST-1368DR,4440,4935,11816,01.115,551
2023-01-04T09:39:30,42.805,6.029,CST-1368DR,4440,4934,11813,01.116,551
2023-01-04T09:42:31,42.805,6.029,CST-1368DR,4440,4925,11791,01.124,551
2023-01-04T09:45:33,42.805,6.029,CST-1368DR,4440,4932,11810,01.117,551
2023-01-04T09:48:35,42.805,6.029,CST-1368DR,4440,4931,11807,01.118,551
2023-01-04T09:51:36,42.805,6.029,CST-1368DR,4440,4933,11811,01.117,551
2023-01-04T09:54:38,42.805,6.029,CST-1368DR,4440,4933,11811,01.117,551
2023-01-04T09:57:39,42.805,6.029,CST-1368DR,4440,4933,11811,01.117,551
2023-01-04T10:00:41,42.805,6.029,CST-1368DR,4440,4931,11806,01.119,551
2023-01-04T10:03:42,42.805,6.029,CST-1368DR,4440,4932,11808,01.118,551
2023-01-04T10:06:44,42.805,6.029,CST-1368DR,4440,4931,11806,01.119,551
2023-01-04T10:09:46,42.805,6.029,CST-1368DR,4440,4934,11813,01.116,551
2023-01-04T10:12:47,42.805,6.029,CST-1368DR,4440,4935,11815,01.116,551
2023-01-04T10:15:49,42.805,6.029,CST-1368DR,4440,4933,11811,01.117,551
2023-01-04T10:18:50,42.805,6.029,CST-1368DR,4440,4933,11810,01.117,551
2023-01-04T10:21:52,42.805,6.029,CST-1368DR,4440,4932,11809,01.118,551
2023-01-04T10:24:54,42.805,6.029,CST-1368DR,4440,4934,11814,01.116,551
2023-01-04T10:27:55,42.805,6.029,CST-1368DR,4440,4932,11809,01.118,551
2023-01-04T10:30:57,42.805,6.029,CST-1368DR,4440,4932,11808,01.118,551
2023-01-04T10:33:58,42.805,6.029,CST-1368DR,4440,4933,11811,01.117,551
2023-01-04T10:37:00,42.805,6.029,CST-1368DR,4440,4933,11811,01.117,551
2023-01-04T10:40:02,42.805,6.029,CST-1368DR,4440,4935,11816,01.115,551
2023-01-04T10:43:03,42.805,6.029,CST-1368DR,4440,4930,11804,01.119,551
2023-01-04T10:46:05,42.805,6.029,CST-1368DR,4440,4932,11808,01.118,551
2023-01-04T10:49:06,42.805,6.029,CST-1368DR,4439,4932,11811,01.117,551
2023-01-04T10:52:08,42.805,6.029,CST-1368DR,4439,4928,11803,01.120,551
2023-01-04T10:55:09,42.805,6.029,CST-1368DR,4439,4929,11804,01.119,551
2023-01-04T10:58:11,42.805,6.029,CST-1368DR,4439,4926,11798,01.121,551
2023-01-04T11:01:13,42.805,6.029,CST-1368DR,4439,4928,11801,01.120,551
2023-01-04T11:04:14,42.805,6.029,CST-1368DR,4439,4930,11806,01.119,551
2023-01-04T11:07:16,42.805,6.029,CST-1368DR,4439,4928,11801,01.120,551
2023-01-04T11:10:17,42.805,6.029,CST-1368DR,4439,4931,11809,01.118,551
2023-01-04T11:13:19,42.805,6.029,CST-1368DR,4439,4933,11813,01.116,551
2023-01-04T11:16:21,42.805,6.029,CST-1368DR,4439,4934,11816,01.115,551
2023-01-04T11:19:22,42.805,6.029,CST-1368DR,4439,4931,11810,01.117,551
2023-01-04T11:22:24,42.805,6.029,CST-1368DR,4439,4933,11814,01.116,551
2023-01-04T11:25:25,42.805,6.029,CST-1368DR,4439,4932,11811,01.117,551
2023-01-04T11:28:27,42.805,6.029,CST-1368DR,4439,4933,11813,01.116,551
2023-01-04T11:31:28,42.805,6.029,CST-1368DR,4439,4932,11812,01.117,551
2023-01-04T11:34:30,42.805,6.029,CST-1368DR,4439,4932,11810,01.117,551
2023-01-04T11:37:32,42.805,6.029,CST-1368DR,4439,4932,11811,01.117,551
2023-01-04T11:40:33,42.805,6.029,CST-1368DR,4439,4932,11810,01.117,551
2023-01-04T11:43:35,42.805,6.029,CST-1368DR,4439,4932,11812,01.117,551
2023-01-04T11:46:36,42.805,6.029,CST-1368DR,4439,4931,11809,01.118,551
2023-01-04T11:49:38,42.805,6.029,CST-1368DR,4439,4933,11813,01.116,550
2023-01-04T11:52:40,42.805,6.029,CST-1368DR,4439,4932,11812,01.117,551
2023-01-04T11:55:41,42.805,6.029,CST-1368DR,4439,4938,11826,01.112,551
2023-01-04T11:58:43,42.805,6.029,CST-1368DR,4439,4934,11816,01.115,551
2023-01-04T12:01:44,42.805,6.029,CST-1368DR,4439,4933,11814,01.116,551
2023-01-04T12:04:46,42.805,6.029,CST-1368DR,4439,4934,11816,01.115,551
2023-01-04T12:07:47,42.805,6.029,CST-1368DR,4439,4935,11819,01.114,551
2023-01-04T12:10:49,42.805,6.029,CST-1368DR,4439,4933,11815,01.116,551
2023-01-04T12:13:51,42.805,6.029,CST-1368DR,4439,4933,11813,01.116,551
2023-01-04T12:16:52,42.805,6.029,CST-1368DR,4439,4932,11811,01.117,551
2023-01-04T12:19:54,42.805,6.029,CST-1368DR,4439,4933,11814,01.116,551
2023-01-04T12:22:55,42.805,6.029,CST-1368DR,4439,4934,11817,01.115,551
2023-01-04T12:25:57,42.805,6.029,CST-1368DR,4439,4935,11819,01.114,551
2023-01-04T12:28:59,42.805,6.029,CST-1368DR,4439,4934,11817,01.115,551
2023-01-04T12:32:00,42.805,6.029,CST-1368DR,4439,4935,11818,01.115,551
2023-01-04T12:35:02,42.805,6.029,CST-1368DR,4439,4936,11821,01.114,551
2023-01-04T12:38:03,42.805,6.029,CST-1368DR,4439,4937,11823,01.113,551
2023-01-04T12:41:05,42.805,6.029,CST-1368DR,4439,4934,11816,01.115,551
2023-01-04T12:44:07,42.805,6.029,CST-1368DR,4439,4934,11816,01.115,551
2023-01-04T12:47:08,42.805,6.029,CST-1368DR,4439,4935,11819,01.114,551
2023-01-04T12:50:10,42.805,6.029,CST-1368DR,4439,4940,11830,01.111,551
2023-01-04T12:53:11,42.805,6.029,CST-1368DR,4439,4939,11828,01.111,551
2023-01-04T12:56:13,42.805,6.029,CST-1368DR,4439,4936,11822,01.113,550
2023-01-04T12:59:14,42.805,6.029,CST-1368DR,4439,4940,11831,01.110,551
2023-01-04T13:02:16,42.805,6.029,CST-1368DR,4439,4934,11817,01.115,551
2023-01-04T13:05:18,42.805,6.029,CST-1368DR,4439,4933,11814,01.116,551
2023-01-04T13:08:19,42.805,6.029,CST-1368DR,4439,4936,11822,01.113,551
2023-01-04T13:11:21,42.805,6.029,CST-1368DR,4439,4936,11821,01.114,551
2023-01-04T13:14:22,42.805,6.029,CST-1368DR,4439,4936,11820,01.114,551
2023-01-04T13:17:24,42.805,6.029,CST-1368DR,4439,4939,11828,01.111,551
2023-01-04T13:20:26,42.805,6.029,CST-1368DR,4439,4941,11832,01.110,551
2023-01-04T13:23:27,42.805,6.029,CST-1368DR,4439,4933,11814,01.116,551
2023-01-04T13:26:29,42.805,6.029,CST-1368DR,4439,4936,11821,01.114,551
2023-01-04T13:29:30,42.805,6.029,CST-1368DR,4439,4940,11831,01.110,551
2023-01-04T13:32:32,42.805,6.029,CST-1368DR,4439,4939,11828,01.111,551
2023-01-04T13:35:33,42.805,6.029,CST-1368DR,4439,4939,11828,01.111,551
2023-01-04T13:38:35,42.805,6.029,CST-1368DR,4439,4937,11822,01.113,551
2023-01-04T13:41:37,42.805,6.029,CST-1368DR,4439,4937,11823,01.113,551
2023-01-04T13:44:38,42.805,6.029,CST-1368DR,4439,4942,11835,01.109,551
2023-01-04T13:47:40,42.805,6.029,CST-1368DR,4439,4935,11819,01.114,551
2023-01-04T13:50:41,42.805,6.029,CST-1368DR,4439,4935,11819,01.114,551
2023-01-04T13:53:43,42.805,6.029,CST-1368DR,4439,4936,11821,01.114,551
2023-01-04T13:56:45,42.805,6.029,CST-1368DR,4439,4938,11826,01.112,551
2023-01-04T13:59:46,42.805,6.029,CST-1368DR,4439,4939,11828,01.111,551
2023-01-04T14:02:48,42.805,6.029,CST-1368DR,4439,4938,11827,01.112,551
2023-01-04T14:05:49,42.805,6.029,CST-1368DR,4439,4937,11823,01.113,551
2023-01-04T14:08:51,42.805,6.029,CST-1368DR,4439,4935,11819,01.114,551
2023-01-04T14:11:53,42.805,6.029,CST-1368DR,4439,4936,11821,01.114,551
2023-01-04T14:14:54,42.805,6.029,CST-1368DR,4438,4938,11829,01.111,551
2023-01-04T14:17:56,42.805,6.029,CST-1368DR,4438,4937,11825,01.112,551
2023-01-04T14:20:57,42.805,6.029,CST-1368DR,4438,4936,11822,01.113,551
2023-01-04T14:23:59,42.805,6.029,CST-1368DR,4438,4938,11829,01.111,551
2023-01-04T14:27:00,42.805,6.029,CST-1368DR,4438,4939,11831,01.110,551
2023-01-04T14:30:02,42.805,6.029,CST-1368DR,4438,4936,11824,01.113,551
2023-01-04T14:33:04,42.805,6.029,CST-1368DR,4438,4939,11830,01.111,551
2023-01-04T14:36:05,42.805,6.029,CST-1368DR,4438,4937,11827,01.112,551
2023-01-04T14:39:07,42.805,6.029,CST-1368DR,4438,4938,11828,01.111,551
2023-01-04T14:42:08,42.805,6.029,CST-1368DR,4438,4936,11824,01.113,551
2023-01-04T14:45:10,42.805,6.029,CST-1368DR,4438,4938,11828,01.111,551
2023-01-04T14:48:12,42.805,6.029,CST-1368DR,4438,4939,11830,01.111,551
2023-01-04T14:51:13,42.805,6.029,CST-1368DR,4438,4938,11828,01.111,551
2023-01-04T14:54:15,42.805,6.029,CST-1368DR,4438,4936,11824,01.113,551
2023-01-04T14:57:16,42.805,6.029,CST-1368DR,4438,4938,11828,01.111,551
2023-01-04T15:00:18,42.805,6.029,CST-1368DR,4438,4938,11829,01.111,551
2023-01-04T15:03:19,42.805,6.029,CST-1368DR,4438,4937,11825,01.112,551
2023-01-04T15:06:21,42.805,6.029,CST-1368DR,4438,4939,11830,01.111,551
2023-01-04T15:09:23,42.805,6.029,CST-1368DR,4438,4937,11825,01.112,551
2023-01-04T15:12:24,42.805,6.029,CST-1368DR,4438,4938,11827,01.112,551
2023-01-04T15:15:26,42.805,6.029,CST-1368DR,4438,4939,11831,01.110,551
2023-01-04T15:18:27,42.805,6.029,CST-1368DR,4438,4939,11831,01.110,551
2023-01-04T15:21:29,42.805,6.029,CST-1368DR,4438,4938,11828,01.111,551
2023-01-04T15:24:31,42.805,6.029,CST-1368DR,4438,4939,11831,01.110,551
2023-01-04T15:27:32,42.805,6.029,CST-1368DR,4438,4938,11829,01.111,551
2023-01-04T15:30:34,42.805,6.029,CST-1368DR,4438,4936,11823,01.113,551
2023-01-04T15:33:35,42.805,6.029,CST-1368DR,4438,4936,11824,01.113,551
2023-01-04T15:36:37,42.805,6.029,CST-1368DR,4438,4937,11825,01.112,551
2023-01-04T15:39:39,42.805,6.029,CST-1368DR,4438,4939,11830,01.111,551
2023-01-04T15:42:40,42.805,6.029,CST-1368DR,4438,4938,11828,01.111,551
2023-01-04T15:45:42,42.805,6.029,CST-1368DR,4438,4936,11824,01.113,551
2023-01-04T15:48:43,42.805,6.029,CST-1368DR,4438,4936,11823,01.113,551
2023-01-04T15:51:45,42.805,6.029,CST-1368DR,4438,4938,11827,01.112,551
2023-01-04T15:54:46,42.805,6.029,CST-1368DR,4438,4939,11830,01.111,551
2023-01-04T15:57:48,42.805,6.029,CST-1368DR,4438,4932,11813,01.116,551
2023-01-04T16:00:50,42.805,6.029,CST-1368DR,4438,4933,11817,01.115,551
2023-01-04T16:03:51,42.805,6.029,CST-1368DR,4438,4938,11827,01.112,551
2023-01-04T16:06:53,42.805,6.029,CST-1368DR,4438,4938,11829,01.111,551
2023-01-04T16:09:54,42.805,6.029,CST-1368DR,4438,4936,11824,01.113,551
2023-01-04T16:12:56,42.805,6.029,CST-1368DR,4438,4937,11825,01.112,551
2023-01-04T16:15:58,42.805,6.029,CST-1368DR,4438,4937,11827,01.112,551
2023-01-04T16:18:59,42.805,6.029,CST-1368DR,4438,4936,11823,01.113,551
2023-01-04T16:22:01,42.805,6.029,CST-1368DR,4438,4938,11827,01.112,551
2023-01-04T16:25:02,42.805,6.029,CST-1368DR,4438,4937,11827,01.112,551
2023-01-04T16:28:04,42.805,6.029,CST-1368DR,4438,4934,11819,01.114,551
2023-01-04T16:31:05,42.805,6.029,CST-1368DR,4438,4933,11816,01.115,551
2023-01-04T16:34:07,42.805,6.029,CST-1368DR,4438,4935,11821,01.114,551
2023-01-04T16:37:09,42.805,6.029,CST-1368DR,4438,4937,11825,01.112,551